Total_Precipitation_Accumulation
0.43 0.46 0.63 0.60 0.44 0.43 0.69 0.71 0.77 0.50 0.46 0.53 0.57 0.63 0.60 0.55 0.48 0.41 0.40 0.43 0.50 0.60 0.64 0.62 0.68 0.70 0.70 0.75 0.80 0.85 0.88 0.88 0.86 0.84 0.84 0.89 0.97 1.03 1.06 1.07 1.04 1.03 1.11 1.19
0.48 0.42 0.54 0.50 0.33 0.32 0.37 0.40 0.46 0.39 0.48 0.49 0.52 0.56 0.58 0.56 0.46 0.37 0.37 0.39 0.42 0.52 0.68 0.63 0.69 0.78 0.78 0.83 0.91 0.93 0.96 0.92 0.90 0.85 0.83 0.81 0.83 0.87 0.92 0.98 0.98 0.98 1.01 1.03
0.78 0.40 0.56 0.59 0.43 0.40 0.42 0.42 0.43 0.52 0.52 0.42 0.47 0.55 0.59 0.53 0.41 0.36 0.35 0.35 0.39 0.46 0.62 0.71 0.75 0.85 0.93 0.96 1.01 1.00 0.99 0.93 0.87 0.83 0.81 0.80 0.78 0.80 0.86 0.91 0.98 1.04 1.06 1.08
1.12 0.71 0.83 0.62 0.42 0.40 0.43 0.44 0.41 0.44 0.40 0.39 0.45 0.49 0.49 0.44 0.39 0.34 0.30 0.31 0.35 0.41 0.47 0.60 0.66 0.76 0.87 0.95 1.05 1.05 1.03 1.01 0.98 0.95 0.97 1.00 0.99 1.01 1.03 1.03 1.08 1.19 1.24 1.26
1.19 0.89 0.53 0.32 0.26 0.39 0.48 0.50 0.41 0.34 0.30 0.27 0.29 0.37 0.44 0.37 0.35 0.36 0.33 0.31 0.31 0.35 0.38 0.45 0.54 0.61 0.73 0.90 1.07 1.17 1.22 1.23 1.24 1.25 1.28 1.30 1.32 1.32 1.32 1.34 1.36 1.36 1.37 1.32
1.21 1.01 0.55 0.33 0.17 0.22 0.39 0.60 0.33 0.25 0.25 0.24 0.24 0.38 0.46 0.40 0.35 0.34 0.33 0.32 0.32 0.33 0.35 0.39 0.51 0.59 0.73 0.95 1.15 1.30 1.35 1.37 1.40 1.46 1.51 1.47 1.42 1.38 1.30 1.28 1.31 1.31 1.32 1.30
1.00 0.98 0.55 0.35 0.18 0.18 0.54 0.70 0.32 0.27 0.29 0.29 0.35 0.44 0.38 0.33 0.36 0.36 0.37 0.40 0.41 0.43 0.46 0.50 0.56 0.67 0.85 0.99 1.14 1.24 1.28 1.31 1.32 1.30 1.30 1.26 1.22 1.17 1.13 1.09 1.05 1.04 1.02 1.00
0.76 1.03 0.76 0.39 0.28 0.50 0.68 0.44 0.34 0.27 0.27 0.30 0.31 0.28 0.25 0.24 0.26 0.29 0.32 0.39 0.48 0.55 0.60 0.61 0.65 0.75 0.85 0.91 0.95 0.96 0.98 1.00 1.00 0.94 0.88 0.88 0.90 0.91 0.89 0.89 0.86 0.83 0.80 0.80
0.77 0.84 0.68 0.51 0.56 0.62 0.52 0.44 0.34 0.30 0.28 0.27 0.27 0.25 0.22 0.19 0.18 0.19 0.20 0.24 0.29 0.39 0.45 0.45 0.46 0.52 0.59 0.58 0.56 0.57 0.58 0.63 0.65 0.64 0.61 0.61 0.65 0.69 0.71 0.73 0.74 0.74 0.73 0.74
0.65 0.60 0.48 0.46 0.46 0.45 0.43 0.43 0.38 0.32 0.30 0.28 0.29 0.26 0.23 0.20 0.18 0.16 0.16 0.18 0.20 0.22 0.25 0.26 0.27 0.30 0.34 0.33 0.32 0.34 0.40 0.45 0.51 0.55 0.57 0.57 0.59 0.63 0.67 0.69 0.72 0.73 0.74 0.74
0.59 0.48 0.42 0.38 0.37 0.38 0.36 0.33 0.30 0.28 0.27 0.27 0.28 0.27 0.25 0.23 0.22 0.20 0.19 0.19 0.20 0.23 0.24 0.25 0.25 0.25 0.27 0.29 0.29 0.30 0.33 0.37 0.43 0.49 0.56 0.58 0.58 0.61 0.67 0.70 0.82 0.99 1.00 0.92
0.66 0.49 0.55 0.47 0.36 0.33 0.31 0.30 0.30 0.30 0.30 0.29 0.28 0.30 0.27 0.26 0.26 0.24 0.24 0.23 0.23 0.25 0.28 0.30 0.32 0.33 0.33 0.34 0.34 0.34 0.36 0.38 0.44 0.49 0.54 0.58 0.61 0.63 0.67 0.71 0.79 0.87 0.94 1.00
0.55 0.45 0.45 0.42 0.34 0.31 0.30 0.29 0.29 0.28 0.28 0.27 0.26 0.27 0.28 0.29 0.28 0.27 0.27 0.28 0.31 0.33 0.36 0.38 0.38 0.38 0.39 0.40 0.42 0.43 0.45 0.48 0.53 0.54 0.56 0.57 0.60 0.64 0.66 0.67 0.71 0.76 0.80 0.86
0.39 0.37 0.38 0.35 0.35 0.31 0.28 0.27 0.26 0.25 0.25 0.25 0.25 0.25 0.25 0.26 0.25 0.27 0.31 0.35 0.35 0.35 0.36 0.38 0.39 0.41 0.44 0.46 0.49 0.49 0.50 0.56 0.61 0.61 0.62 0.64 0.65 0.66 0.69 0.71 0.70 0.68 0.71 0.81
0.31 0.34 0.40 0.37 0.32 0.29 0.28 0.27 0.25 0.25 0.25 0.26 0.26 0.26 0.26 0.26 0.26 0.27 0.29 0.31 0.31 0.32 0.33 0.35 0.36 0.40 0.43 0.47 0.51 0.52 0.53 0.56 0.61 0.65 0.68 0.70 0.69 0.70 0.71 0.70 0.67 0.64 0.64 0.71
0.34 0.30 0.30 0.30 0.32 0.32 0.30 0.28 0.28 0.29 0.29 0.28 0.28 0.29 0.29 0.29 0.28 0.27 0.27 0.27 0.30 0.33 0.34 0.36 0.39 0.42 0.43 0.47 0.51 0.53 0.54 0.62 0.67 0.68 0.68 0.70 0.72 0.72 0.71 0.70 0.68 0.64 0.63 0.68
0.47 0.43 0.40 0.40 0.36 0.35 0.36 0.36 0.36 0.37 0.35 0.33 0.33 0.32 0.30 0.28 0.26 0.26 0.28 0.29 0.32 0.35 0.36 0.39 0.42 0.42 0.43 0.46 0.51 0.54 0.55 0.59 0.67 0.66 0.64 0.68 0.75 0.78 0.75 0.73 0.72 0.67 0.62 0.69
0.54 0.56 0.57 0.59 0.55 0.50 0.44 0.41 0.40 0.39 0.40 0.39 0.36 0.33 0.33 0.33 0.33 0.32 0.34 0.33 0.31 0.31 0.33 0.37 0.41 0.43 0.42 0.46 0.53 0.56 0.57 0.59 0.62 0.66 0.68 0.73 0.81 0.83 0.83 0.81 0.78 0.75 0.70 0.74
0.45 0.47 0.47 0.50 0.53 0.52 0.49 0.46 0.46 0.45 0.44 0.41 0.39 0.38 0.37 0.37 0.37 0.38 0.36 0.35 0.33 0.34 0.36 0.36 0.42 0.41 0.40 0.46 0.57 0.58 0.61 0.63 0.64 0.66 0.71 0.78 0.82 0.79 0.81 0.83 0.83 0.81 0.81 0.82
0.38 0.38 0.39 0.43 0.45 0.47 0.48 0.46 0.45 0.45 0.45 0.44 0.43 0.40 0.38 0.38 0.39 0.40 0.37 0.37 0.40 0.44 0.41 0.41 0.41 0.37 0.38 0.43 0.56 0.60 0.62 0.64 0.66 0.67 0.70 0.73 0.74 0.74 0.74 0.78 0.81 0.82 0.83 0.83
0.40 0.39 0.38 0.40 0.43 0.44 0.45 0.46 0.47 0.48 0.47 0.46 0.47 0.47 0.44 0.42 0.42 0.41 0.40 0.38 0.37 0.37 0.37 0.38 0.36 0.38 0.46 0.60 0.64 0.58 0.57 0.60 0.63 0.65 0.68 0.70 0.70 0.69 0.70 0.73 0.76 0.77 0.78 0.78
0.43 0.43 0.42 0.42 0.43 0.46 0.47 0.47 0.47 0.46 0.45 0.44 0.44 0.43 0.41 0.40 0.37 0.36 0.36 0.39 0.39 0.42 0.43 0.36 0.37 0.50 0.70 0.77 0.63 0.54 0.54 0.58 0.61 0.64 0.66 0.67 0.68 0.68 0.67 0.68 0.71 0.71 0.72 0.75
0.45 0.44 0.43 0.42 0.41 0.41 0.39 0.39 0.40 0.41 0.43 0.44 0.44 0.43 0.42 0.40 0.39 0.40 0.40 0.36 0.36 0.43 0.45 0.41 0.50 0.67 0.78 0.70 0.57 0.55 0.58 0.59 0.60 0.62 0.64 0.67 0.69 0.71 0.71 0.69 0.69 0.70 0.71 0.71
0.37 0.37 0.38 0.36 0.32 0.29 0.30 0.32 0.33 0.34 0.36 0.37 0.38 0.37 0.37 0.35 0.32 0.31 0.34 0.36 0.39 0.45 0.44 0.46 0.56 0.64 0.65 0.57 0.53 0.56 0.59 0.59 0.60 0.60 0.61 0.62 0.64 0.66 0.67 0.66 0.65 0.62 0.63 0.64
0.32 0.30 0.28 0.27 0.26 0.25 0.26 0.25 0.24 0.25 0.26 0.28 0.29 0.30 0.31 0.33 0.36 0.32 0.29 0.29 0.32 0.37 0.37 0.39 0.45 0.49 0.48 0.46 0.49 0.53 0.55 0.58 0.64 0.68 0.65 0.62 0.61 0.61 0.60 0.60 0.61 0.61 0.59 0.58
0.28 0.27 0.26 0.26 0.26 0.25 0.25 0.23 0.22 0.22 0.23 0.24 0.25 0.27 0.29 0.30 0.30 0.29 0.29 0.28 0.29 0.33 0.33 0.33 0.35 0.38 0.40 0.43 0.46 0.48 0.50 0.52 0.55 0.57 0.57 0.58 0.57 0.57 0.55 0.54 0.54 0.55 0.54 0.55
0.21 0.20 0.19 0.19 0.19 0.20 0.21 0.22 0.24 0.23 0.23 0.26 0.30 0.28 0.28 0.28 0.28 0.27 0.27 0.27 0.29 0.30 0.30 0.30 0.32 0.36 0.39 0.41 0.43 0.43 0.44 0.45 0.48 0.50 0.51 0.52 0.52 0.52 0.51 0.52 0.52 0.52 0.52 0.52